Regional Weather Roundup
Issued by NWS

Home | Current Version | Previous Version | Graphics & Text | Print | Product List | Glossary On
Versions: 1 2 3 4 5 6 7 8 9 10 11 12 13 14 15 16 17 18 19 20 21 22 23 24 25 26 27 28 29 30 31 32 33 34 35 36 37 38 39 40 41 42 43 44 45 46 47 48 49 50
000
ASUS43 KIND 300159
RWRIN

WEATHER ROUNDUP FOR INDIANA
NATIONAL WEATHER SERVICE INDIANAPOLIS IN
900 PM EST THU JAN 29 2015

NOTE: "FAIR" INDICATES FEW OR NO CLOUDS BELOW 12,000 FEET WITH NO
SIGNIFICANT WEATHER AND/OR OBSTRUCTIONS TO VISIBILITY.

* - STATION DOES NOT REPORT WEATHER SUCH AS PRECIPITATION OR FOG.

+ - STATION NOT QUALITY CONTROLLED BY THE NATIONAL WEATHER SERVICE.
    USE DATA WITH CAUTION...ESPECIALLY DEWPOINT AND RELATIVE
    HUMIDITY OBSERVATIONS.

INZ001>003-010>013-019-020-300300-
NORTHWEST INDIANA

CITY           SKY/WX    TMP DP  RH WIND       PRES   REMARKS
GARY /AIRPORT/ CLOUDY    37  19  48 NW10G32   30.20R
VALPARAISO     NOT AVBL

$$

LMZ046-743>745-300300-
SOUTHERN LAKE MICHIGAN

STATION/POSITION TIME  TEMP WIND        PRES
                       AIR  DIR/SP/G
                 (UTC) (F)  (DEG/KT/KT) (MB)
MICHIGAN CITY    0100   34  290/ 17/ 19   N/A

$$

INZ004-005-014>016-021>024-300300-
NORTH CENTRAL INDIANA

CITY           SKY/WX    TMP DP  RH WIND       PRES   REMARKS
ELKHART        CLOUDY    34  25  69 NW9       30.13R WCI  26
GOSHEN         MIX PCPN  33  28  81 NW12      30.11R WCI  24
PERU/GRISSOM   FLURRIES  32  30  93 NW10      30.15R WCI  24
SOUTH BEND     CLOUDY    35  25  66 NW17G23   30.14R WCI  25

$$

INZ006>009-017-018-025>027-300300-
NORTHEAST INDIANA

CITY           SKY/WX    TMP DP  RH WIND       PRES   REMARKS
ANGOLA *+      CLOUDY    30  27  86 NW13      30.07R WCI  20
FORT WAYNE     FLURRIES  33  27  78 NW18G28   30.11R WCI  22

$$

INZ028-029-035-036-043>045-051>053-300300-
WEST CENTRAL INDIANA

CITY           SKY/WX    TMP DP  RH WIND       PRES   REMARKS
GREENCASTLE +  CLOUDY    32  27  80 NW10      30.22R WCI  24
LAFAYETTE      CLOUDY    33  29  85 W13       30.20R WCI  24
TERRE HAUTE    CLOUDY    35  30  82 NW13      30.25R WCI  26

$$

INZ030>032-037>040-046>048-054>057-064-065-300300-
CENTRAL INDIANA

CITY           SKY/WX    TMP DP  RH WIND       PRES   REMARKS
COLUMBUS       CLOUDY    32  28  86 NW13      30.19R WCI  22
INDIANAPOLIS   CLOUDY    31  28  89 NW16      30.19R WCI  20
-EAGLE CREEK   CLOUDY    32  29  88 NW13      30.18R WCI  22
KOKOMO *+      CLOUDY    32  28  86 NW15      30.16R WCI  22
MT COMFORT *+  CLOUDY    32  32 100 NW10      30.18R WCI  24
SHELBYVILLE    CLOUDY    34  28  79 NW13      30.17R WCI  25

$$

INZ033-034-041-042-049-050-058-059-300300-
EAST CENTRAL INDIANA

CITY           SKY/WX    TMP DP  RH WIND       PRES   REMARKS
MUNCIE         CLOUDY    32  29  88 NW17G23   30.13R FOG     WCI  21

$$

INZ060-061-067>069-081>083-085>088-300300-
SOUTHWEST INDIANA

CITY           SKY/WX    TMP DP  RH WIND       PRES   REMARKS
EVANSVILLE     CLOUDY    39  33  79 NW10G18   30.30R
HUNTINGBURG *+ CLOUDY    37  30  75 NW13G22   30.27R

$$

INZ062-063-066-070>080-084-089>092-300300-
SOUTH CENTRAL AND SOUTHEAST INDIANA

CITY           SKY/WX    TMP DP  RH WIND       PRES   REMARKS
BLOOMINGTON    CLOUDY    34  30  85 VRB7      30.21R WCI  28
SEYMOUR +      CLOUDY    36  30  80 NW9       30.21R

$$



USA.gov is the U.S. government's official web portal to all federal, state and local government web resources and services.